Volver al catálogo

CMS 03

ActivoComunicacionesGEO
NORAD 66311·PAYLOAD·🇮🇳 India

Lanzado Nov 2, 2025 desde Satish Dhawan Space Centre

Loading…

TLE

ActualizadoSource: Space-Track

Época: Sep 14, 2026, 14:09 UTC

1 66311U 25249B   26257.58974774 -.00000085  00000-0  00000-0 0  9996
2 66311   0.0531 267.3053 0000761 221.1687 151.3704  1.00272381  3249

Sigue CMS 03 en tiempo real con AllMySat

Download on the App Store